Location: NJAA Observatory
(40.6819°N, 74.8979°W)
Time: 02:31:43
(UTC-04:00)

Cosmos 1328 Rocket - Visible Passes

Search period start: 27 May 2016 00:00
Search period end: 06 June 2016 00:00
Orbit: 601 x 628 km, 82.5° (Epoch: 26 May)

Date Brightness Start Highest point End Pass type
(mag) Time Alt. Az. Time Alt. Az. Time Alt. Az.
27 May 5.2 00:24:24 10° NNE 00:27:33 26° ENE 00:27:33 26° ENE visible
27 May 5.4 02:02:18 10° NW 02:04:37 21° WNW 02:04:37 21° WNW visible
28 May 4.5 00:40:02 10° N 00:43:26 43° NE 00:43:26 43° NE visible
28 May 5.9 02:19:29 10° NW 02:20:30 12° WNW 02:20:30 12° WNW visible
29 May 4.2 00:55:56 10° N 00:59:20 53° N 00:59:20 53° N visible
29 May 5.8 23:35:44 10° NE 23:38:11 15° ENE 23:38:11 15° ENE visible
30 May 4.6 01:12:05 10° NNW 01:15:14 38° NW 01:15:14 38° NW visible
30 May 5.1 23:50:48 10° NNE 23:54:06 25° ENE 23:54:06 25° ENE visible
31 May 5.3 01:28:32 10° NNW 01:31:09 23° WNW 01:31:09 23° WNW visible
01 Jun 4.4 00:06:22 10° N 00:10:01 43° NE 00:10:01 43° NE visible
01 Jun 5.9 01:45:33 10° NW 01:47:05 14° WNW 01:47:05 14° WNW visible
02 Jun 3.9 00:22:15 10° N 00:25:58 63° N 00:25:58 63° N visible
02 Jun 5.7 23:02:14 10° NE 23:04:33 14° ENE 23:04:51 14° ENE visible
03 Jun 4.4 00:38:22 10° NNW 00:41:55 45° WNW 00:41:55 45° WNW visible
03 Jun 5.1 23:17:11 10° NNE 23:20:48 24° ENE 23:20:49 24° ENE visible
04 Jun 5.1 00:54:46 10° NNW 00:57:53 27° WNW 00:57:53 27° WNW visible
04 Jun 4.2 23:32:44 10° N 23:36:47 42° ENE 23:36:47 42° ENE visible
05 Jun 5.8 01:11:41 10° NW 01:13:51 16° WNW 01:13:51 16° WNW visible
05 Jun 3.6 23:48:34 10° N 23:52:46 76° NE 23:52:46 76° NE visible
